Regional Weather Roundup
Issued by NWS Kansas City/Pleasant Hill, MO

Home | Current Version | Previous Version | Text Only | Print | Product List | Glossary On
Versions: 1 2 3 4 5 6 7 8 9 10 11 12 13 14 15 16 17 18 19 20 21 22 23 24 25 26 27 28 29 30 31 32 33 34 35 36 37 38 39 40 41 42 43 44 45 46 47 48 49
000
ASUS43 KEAX 020510
RWREAX

WEATHER ROUNDUP FOR EASTERN KANSAS AND NORTHWEST MISSOURI
NATIONAL WEATHER SERVICE KANSAS CITY/PLEASANT HILL MO
1200 AM CDT SUN AUG 02 2015

KSZ040-057-103>105-MOZ028-029-037-043-020600-
...KANSAS CITY METROPOLITAN AREA...

CITY           SKY/WX    TMP DP  RH WIND       PRES   REMARKS
K.C. INTL      MOCLDY    72  62  71 SE5       29.98S
K.C. DOWNTOWN  PTCLDY    75  61  61 E5        29.97S
LEES SUMMIT    PTCLDY    73  61  65 CALM      29.99S
OLATHE - IXD   CLEAR     71  64  78 SE6       29.99S
OLATHE - OJC   CLEAR     70  64  81 S5        29.99R
LAWRENCE       PTCLDY    71  66  84 E6        29.97F

$$

MOZ001>008-011>017-020>025-030>033-038>040-044>046-053-054-020600-
...NORTHERN AND CENTRAL MISSOURI...

CITY           SKY/WX    TMP DP  RH WIND       PRES   REMARKS
ST. JOSEPH     MOCLDY    72  64  76 SW3       29.97S
MOSBY          MOCLDY    70  64  83 CALM      29.98S
WARRENSBURG    MOCLDY    68  63  83 N9        29.99R
WHITEMAN AFB   MOCLDY    69  66  89 NE3       29.98R
CLINTON        PTCLDY    68  66  94 CALM      29.99S
SEDALIA        MOCLDY    70  65  84 E5        30.00S
WARSAW         NOT AVBL
CHILLICOTHE      N/A     70  60  70 CALM      29.96F
KIRKSVILLE     PTCLDY    64  61  90 CALM      29.96S

$$

MOZ041-047>049-056>058-063>065-088>090-097-020600-
...EASTERN AND SOUTHERN MISSOURI...

CITY           SKY/WX    TMP DP  RH WIND       PRES   REMARKS
ST. LOUIS INTL PTCLDY    82  68  62 S6        29.98S
SPIRIT OF STL  PTCLDY    73  71  93 CALM      29.97R
COLUMBIA       MOCLDY    69  68  96 S3        29.99S
JEFFERSON CITY MOCLDY    71  67  87 N6        29.99R
ROLLA          PTCLDY    71  69  93 CALM      30.00R
OSAGE BEACH    PTCLDY    70  66  88 CALM      30.00R
SPRINGFIELD    CLEAR     72  66  81 CALM      30.02R
BRANSON        CLEAR     75  66  73 CALM      30.03S
JOPLIN         CLEAR     76  66  71 S5        30.01S
WEST PLAINS    CLEAR     70  67  90 CALM      30.04R

$$

IAZ060-094-KSZ022-034>040-054-083-096-NEZ052-066-093-020600-
...KANSAS...SOUTHEAST NEBRASKA AND IOWA...

CITY           SKY/WX    TMP DP  RH WIND       PRES   REMARKS
TOPEKA         PTCLDY    77  68  73 SE5       29.96S
MANHATTAN      CLEAR     76  70  82 SW7       29.94S
EMPORIA        CLEAR     75  70  84 S8        29.98S
CHANUTE        CLEAR     73  67  81 S7        29.99S
WICHITA        MOCLDY    78  70  76 S7        29.98F
OMAHA          PTCLDY    77  72  84 S8        29.91S
LINCOLN        PTCLDY    71  66  84 CALM      29.93S
FALLS CITY     PTCLDY    72  65  78 S10       29.94F
LAMONI         PTCLDY    70  66  87 SW9       29.95F
DES MOINES     PTCLDY    77  70  79 SW12      29.91S

$$



USA.gov is the U.S. government's official web portal to all federal, state and local government web resources and services.